Location: Arbon
(43.0005°N, 0.7472°E)
Time: 12:57:08
(UTC+00:00)

SR - Pass Details

Date: 06 December 2020
Orbit: 575 x 880 km, 66.7° (Epoch: 17 January)

Event Time Altitude Azimuth Distance (km) Brightness Sun altitude
Rises 17:07:09 0° 231° (SW) 2,816 ? -8.1°
Reaches altitude 10° 17:09:26 10° 239° (WSW) 1,945 ? -8.5°
Maximum altitude 17:13:31 38° 309° (NW) 963 ? -9.2°
Drops below altitude 10° 17:17:56 10° 18° (NNE) 2,098 ? -9.9°
Enters shadow 17:19:27 - 24° (NNE) 2,671 ? -10.2°
